Wind_Speed
16 16 17 14 15 15 10 6 2 3 3 1 3 4 3 4 4 5 7 5 5 6 3 6 8 6 2 4 8 9 9 6 4 1 4 10 21 23 18 20 20 18 19 19 20 20 20 22 21 21 23 23 22 22 23 22 22 22 19 18 17 17 16 16 16 16 15 15 15 15 14 14 14 13 13 13 12 12 12 11 11 12 11 11 11 11 11 11 10 10 10 10 10 10 10 9 10
16 16 15 14 18 12 4 5 3 2 2 3 5 6 5 4 2 5 6 3 6 7 6 8 8 5 3 6 7 7 10 10 10 8 10 20 23 20 21 22 21 19 19 19 19 19 19 21 22 21 22 23 23 23 23 22 21 20 18 17 17 16 17 17 17 16 15 15 15 14 14 14 13 13 13 13 12 12 11 11 12 12 12 11 10 10 11 11 10 10 10 10 10 10 9 9 9
17 15 15 15 15 8 2 4 4 2 2 5 5 5 4 4 5 7 6 6 9 10 9 9 7 5 4 7 5 5 6 8 13 13 13 22 19 18 24 22 21 19 19 19 18 18 18 21 23 21 22 22 22 21 21 21 20 18 17 17 16 17 18 18 16 16 15 15 14 14 14 13 12 12 12 12 12 12 11 11 11 11 12 11 10 10 10 10 10 10 10 10 9 9 9 9 9
15 12 13 10 7 5 3 3 4 4 4 4 5 5 5 6 7 7 7 9 10 10 9 9 7 3 1 7 5 6 8 8 13 14 13 17 17 22 24 21 21 19 19 18 17 17 18 22 23 22 21 21 20 20 20 20 19 18 18 17 18 19 18 17 16 15 15 14 14 14 13 12 12 12 12 11 11 11 11 11 11 11 11 11 10 10 10 10 9 9 9 9 9 9 9 9 9
13 10 8 6 3 1 3 4 4 3 4 4 5 6 6 7 7 7 8 9 10 10 9 7 7 4 5 7 3 4 8 9 13 16 16 18 21 25 24 22 21 19 19 18 17 17 18 22 22 21 21 20 20 20 19 19 18 18 18 19 19 19 17 16 16 15 14 14 13 13 13 12 12 11 11 11 11 10 11 11 11 11 11 10 10 9 9 9 9 9 9 9 9 9 9 8 8
11 9 5 5 3 2 4 3 2 2 5 4 5 7 6 7 7 9 9 10 9 8 8 5 6 8 6 7 6 6 6 8 13 16 18 21 24 25 24 23 20 19 19 18 17 17 20 23 22 21 20 20 20 19 18 18 19 19 20 20 19 17 16 16 15 14 14 13 13 12 12 11 11 10 10 10 10 9 10 10 10 10 10 10 10 10 9 9 9 8 8 9 9 9 9 9 8
10 7 4 5 3 2 5 2 1 4 5 4 6 7 7 7 7 9 10 10 8 7 6 4 7 8 6 6 7 9 6 8 13 16 20 24 26 26 25 22 20 20 19 18 18 18 22 23 22 20 19 19 19 18 18 19 20 20 21 19 18 16 16 16 14 14 14 13 12 12 11 11 10 10 10 9 9 9 10 10 10 10 10 10 10 10 10 9 8 8 8 8 8 8 9 8 8
9 6 2 4 3 4 5 2 3 4 5 4 6 7 7 7 6 8 9 8 7 7 6 6 8 6 6 5 5 7 6 10 15 19 23 26 27 25 24 22 22 21 20 19 19 21 24 24 22 20 20 20 19 19 19 20 20 20 19 18 17 16 16 15 14 14 13 13 12 11 11 10 10 9 9 9 9 9 9 9 9 9 9 9 9 9 9 9 8 8 8 7 8 7 8 8 8
8 5 3 4 4 3 3 1 4 4 5 5 5 7 7 7 6 7 7 7 7 8 8 9 6 3 7 6 7 7 7 13 19 23 25 26 26 25 23 22 23 22 21 20 20 23 24 23 22 21 21 20 20 20 20 20 19 19 19 17 17 16 16 15 14 13 13 12 11 11 10 9 9 9 9 8 8 8 8 8 8 8 8 8 8 8 8 8 8 8 8 7 7 7 7 7 7
6 4 4 4 4 3 2 3 4 4 5 5 6 7 7 6 6 6 6 7 8 8 9 8 5 5 9 8 8 6 9 18 22 24 25 26 25 23 22 22 23 23 21 20 21 23 23 23 23 22 22 22 22 21 20 20 20 19 18 17 16 16 15 14 14 13 12 11 11 10 9 9 9 8 8 8 8 8 8 8 7 7 8 8 8 8 8 8 8 7 7 7 6 6 6 6 7
4 3 4 5 4 2 3 4 4 6 6 5 6 6 6 6 6 6 5 8 8 9 10 7 6 9 10 8 5 7 14 21 23 25 27 25 23 22 22 21 22 22 21 21 22 22 23 25 24 23 23 23 22 21 21 20 19 18 17 16 15 15 14 13 13 12 12 11 10 10 9 9 8 8 7 7 7 8 8 7 7 7 7 8 8 8 8 8 8 7 7 7 6 6 6 6 7
4 3 4 5 3 2 3 2 4 6 6 5 7 6 5 6 5 6 6 7 8 9 10 7 7 9 9 8 5 10 18 22 25 27 27 25 23 21 21 21 21 21 20 21 22 22 23 24 23 22 22 21 21 20 20 19 18 17 16 15 15 14 13 13 12 12 11 10 10 9 9 8 8 8 7 7 7 7 7 7 7 7 7 7 8 8 8 8 8 7 7 6 6 6 6 6 6
4 3 4 4 3 3 2 1 3 3 5 6 6 6 5 5 4 5 5 7 8 8 9 7 7 8 7 9 7 12 17 23 26 27 27 25 22 21 20 20 21 20 20 21 21 22 23 22 22 22 21 21 20 20 20 19 17 16 15 15 14 14 13 12 11 11 10 10 9 9 8 8 8 7 7 6 6 6 6 6 7 7 7 7 7 7 7 7 7 7 6 6 6 6 6 6 6
4 3 4 4 3 3 2 1 2 2 5 6 6 7 5 4 3 5 4 7 7 5 8 8 8 8 8 10 9 11 16 24 27 26 27 24 22 21 20 21 21 20 20 20 20 22 22 22 22 22 22 21 21 20 20 19 17 16 15 15 14 13 12 11 11 10 10 9 9 8 8 7 7 6 6 6 6 6 6 6 6 7 7 7 7 6 6 6 6 6 5 6 6 6 6 6 5
4 2 4 5 3 3 1 1 1 2 5 5 6 7 5 3 4 5 3 6 7 6 9 8 7 5 8 11 10 13 21 27 27 26 26 23 22 20 20 21 21 21 21 20 20 21 21 20 20 21 21 20 20 20 19 18 17 16 15 14 14 13 12 11 10 10 9 9 8 8 7 7 6 6 5 5 5 5 6 5 5 6 7 6 6 6 5 5 5 5 5 5 6 6 5 5 5
4 3 4 4 4 2 2 2 1 2 4 5 5 6 6 5 5 5 3 3 8 8 7 7 6 1 6 11 12 21 27 29 28 27 25 23 21 20 21 20 20 21 20 20 20 20 20 19 19 19 20 19 19 19 19 18 17 16 15 14 13 12 12 11 10 9 9 8 8 7 7 7 6 6 5 4 5 5 5 4 4 5 5 5 5 5 5 5 5 5 4 5 5 5 5 5 5
4 4 5 4 3 1 2 2 2 2 5 6 5 6 6 7 6 5 5 4 8 11 6 6 6 1 4 10 19 28 31 30 29 27 25 23 21 20 21 20 20 21 20 20 19 19 20 19 19 18 19 18 18 17 18 18 17 17 15 14 13 12 11 11 10 9 9 8 7 7 7 6 6 5 5 4 4 3 3 3 4 4 3 4 4 4 4 4 4 4 4 4 4 5 5 5 6
5 4 5 4 3 0 3 4 4 2 5 5 3 6 5 6 8 6 7 7 8 11 7 7 7 4 6 16 25 30 31 31 29 28 26 23 22 21 20 20 21 21 21 21 20 20 20 20 19 18 19 19 17 16 16 16 18 17 15 14 13 12 12 11 10 10 9 8 8 7 6 6 6 5 5 4 4 3 2 2 3 2 2 3 3 4 4 4 4 3 3 3 3 4 6 5 4
6 4 5 5 1 3 3 3 4 3 5 5 2 4 5 5 8 8 8 8 10 11 9 9 9 9 12 20 27 29 30 31 30 29 28 25 24 22 22 21 21 21 22 21 21 21 20 20 19 18 19 19 18 16 15 15 17 17 14 14 13 12 12 11 10 10 9 9 8 7 6 6 5 5 5 5 4 4 2 1 2 2 2 3 3 4 5 4 4 4 4 4 4 4 5 4 3
7 6 6 4 1 1 2 2 1 3 4 4 2 2 4 4 7 7 6 7 10 10 9 11 12 13 16 20 26 29 30 30 30 29 28 26 25 25 24 23 22 22 21 21 21 21 20 19 19 19 18 19 18 16 16 15 16 16 14 13 12 12 11 11 11 10 9 9 8 8 6 5 5 4 4 4 3 3 1 1 2 3 3 3 4 4 4 4 5 4 4 5 4 4 3 3 3
6 7 7 2 1 3 4 3 2 1 3 4 2 1 4 4 6 7 6 5 7 8 10 13 14 17 19 21 24 28 28 28 29 29 28 27 26 26 24 24 24 22 20 20 20 20 21 20 20 19 19 20 19 16 16 16 15 15 14 13 12 11 11 11 11 10 10 10 9 7 6 6 5 4 4 4 3 3 2 1 1 2 1 2 3 2 1 2 3 2 3 3 3 3 3 2 2
6 8 10 5 3 3 4 3 2 1 3 4 2 2 3 5 7 8 8 5 3 4 9 12 14 19 21 23 24 25 25 26 28 28 28 28 27 26 25 24 24 23 20 19 20 21 21 20 20 20 19 21 20 17 16 16 15 15 14 13 13 12 11 11 11 10 10 10 9 7 6 6 5 5 5 4 4 3 3 2 2 2 1 0 1 1 1 1 2 1 2 2 2 2 2 2 2
8 8 10 9 8 6 3 2 3 3 5 5 3 3 3 7 7 8 10 8 0 3 7 11 14 18 22 24 24 24 24 24 26 28 29 29 28 27 26 26 25 24 22 20 20 20 21 21 20 20 20 20 20 18 16 16 16 15 14 14 13 12 12 12 11 10 10 10 9 7 7 6 6 6 5 4 4 3 3 3 3 2 1 0 1 1 2 2 2 2 2 2 3 2 2 2 1
10 9 9 9 9 9 7 5 5 6 7 7 6 6 7 9 8 7 10 11 3 3 8 12 15 19 21 22 22 23 24 24 26 27 28 28 29 28 27 26 25 24 23 21 20 20 21 22 21 20 20 20 20 18 17 16 15 15 14 14 13 12 12 12 11 10 10 10 9 8 7 6 6 6 5 5 4 4 3 3 3 2 2 1 0 1 2 2 3 3 3 3 3 3 3 2 2
14 12 9 7 8 8 8 8 9 10 8 8 8 10 9 9 8 7 9 10 6 6 10 15 17 19 20 21 22 21 21 23 25 26 26 25 26 27 25 25 25 24 24 24 21 20 21 22 22 21 21 20 20 19 18 16 16 16 15 14 14 13 13 12 11 10 9 9 9 9 8 7 6 6 5 5 5 4 4 4 3 3 2 1 0 0 1 2 3 3 4 4 4 4 4 3 3
11 14 11 9 10 9 9 10 11 10 8 7 9 11 10 9 9 9 10 11 9 10 14 16 19 19 19 20 21 21 20 22 24 25 25 24 25 26 25 24 25 25 25 24 23 21 21 21 22 22 22 21 21 20 18 17 16 16 15 15 14 13 13 12 11 10 9 9 9 10 9 8 7 6 5 5 5 4 4 4 3 3 2 2 1 0 0 1 2 3 4 4 5 5 4 3 3
4 9 11 12 12 10 11 12 12 10 8 9 11 11 9 8 9 7 8 12 13 14 16 17 18 19 19 19 20 19 20 22 24 24 24 23 24 25 25 25 25 25 25 24 24 22 21 21 22 22 22 21 21 20 19 18 17 17 16 15 14 14 13 12 11 10 10 10 10 10 11 9 7 6 5 5 5 5 4 4 4 3 2 2 1 1 0 1 1 2 3 4 4 5 4 4 3
5 6 9 12 12 11 12 13 13 9 8 9 10 11 10 8 11 10 7 14 16 16 17 18 18 17 18 19 19 17 17 21 24 23 23 23 23 24 25 25 24 24 25 25 24 22 22 22 21 22 22 21 21 20 19 18 17 17 16 16 15 14 14 13 12 11 10 10 10 10 11 10 8 7 6 6 5 5 5 4 4 3 2 2 1 1 0 0 1 1 2 3 4 4 3 3 3
9 9 10 11 11 12 13 14 12 10 8 7 7 10 10 11 14 12 9 16 17 16 17 18 17 16 17 17 17 15 16 21 23 22 23 23 22 23 24 24 24 23 23 24 24 23 23 22 22 22 22 22 21 20 19 19 18 17 16 16 16 15 14 13 12 11 11 10 10 10 10 10 9 8 7 7 6 6 5 5 5 4 3 2 1 1 1 0 0 1 1 2 3 2 3 3 3
10 10 9 10 9 11 13 13 12 11 9 6 6 8 7 12 16 11 12 17 17 16 17 17 16 15 15 16 15 15 17 20 21 21 23 23 22 22 23 23 24 23 21 23 24 24 23 22 22 21 22 22 21 20 19 18 17 16 16 16 16 16 14 14 13 12 11 11 11 11 10 10 10 9 8 7 7 6 6 6 5 4 3 2 2 2 1 1 1 1 1 1 1 2 3 3 3
9 10 9 8 8 9 11 9 10 10 6 7 9 8 6 7 11 12 14 18 18 17 17 17 16 15 15 15 15 16 17 19 22 23 23 24 23 22 23 24 23 22 21 22 25 25 24 23 23 22 23 23 22 21 19 18 16 16 16 16 17 16 14 13 13 12 11 11 11 11 12 12 11 10 9 7 7 7 6 6 5 4 3 3 2 2 2 2 2 2 1 1 1 2 3 3 2
8 8 8 9 8 9 9 8 9 10 5 8 10 8 7 3 10 13 14 16 18 16 17 18 17 18 16 15 15 15 16 19 23 24 24 24 24 23 24 25 25 24 22 22 24 25 24 24 24 23 24 24 23 22 20 18 17 17 16 16 16 16 14 13 13 12 12 11 11 11 12 13 12 11 10 8 8 7 7 6 5 5 4 3 3 3 3 2 2 2 1 1 1 2 3 2 1
8 8 9 10 11 10 9 8 10 11 6 9 11 8 7 2 9 13 14 15 17 15 17 19 18 18 17 15 15 15 15 18 20 23 25 25 24 24 24 26 26 26 24 23 24 25 26 25 24 23 24 25 24 23 22 20 19 18 17 16 16 15 14 13 13 12 12 12 12 11 12 13 12 12 11 10 9 8 7 6 5 5 5 4 4 4 4 3 2 1 1 1 2 2 2 2 1
8 9 9 10 11 10 9 7 7 9 9 10 12 11 10 2 7 11 13 15 16 14 16 18 17 16 16 15 15 15 16 17 18 21 26 25 24 25 24 25 26 26 25 24 24 25 25 25 25 24 23 24 24 23 23 22 20 19 18 16 16 15 15 14 13 13 12 12 12 11 12 12 12 12 11 10 10 9 8 7 6 6 5 4 4 5 4 3 2 1 2 2 2 1 2 2 2
11 10 9 10 10 9 10 7 6 7 9 10 11 11 11 8 7 9 11 13 15 14 14 16 17 17 16 15 15 16 16 17 18 22 27 26 25 25 24 24 25 26 25 25 25 25 26 25 25 24 23 24 25 24 23 22 21 20 19 18 17 17 17 16 14 13 13 12 12 12 12 12 11 12 12 11 10 9 9 8 7 7 6 5 5 5 4 3 2 1 2 3 3 1 1 2 2
13 13 10 11 11 10 12 8 4 4 7 9 11 11 11 10 8 10 11 12 13 13 13 13 14 16 15 15 15 16 17 17 18 23 27 26 26 25 24 24 25 26 26 25 26 27 27 26 26 25 24 25 24 24 24 23 22 21 21 20 19 19 18 17 15 14 13 13 13 12 12 12 11 12 12 11 11 10 9 9 8 7 7 6 6 5 4 3 2 1 2 3 3 1 1 1 1
11 12 11 13 13 10 12 9 5 4 7 9 11 12 11 10 8 9 11 12 13 14 14 14 15 15 15 16 17 17 17 16 18 23 26 26 26 25 24 24 25 26 26 26 27 28 28 28 27 27 26 25 25 25 25 25 24 23 23 22 21 20 19 18 16 15 14 14 13 12 12 12 12 12 12 11 11 11 10 9 8 8 8 7 6 5 4 3 3 2 2 3 3 2 2 1 1
10 11 10 12 13 11 12 9 6 5 7 9 10 12 12 11 10 8 11 13 14 15 16 16 17 16 15 17 18 17 15 14 17 21 24 26 26 26 25 23 25 27 27 28 28 29 29 29 28 27 27 27 27 27 26 26 25 23 22 21 20 19 18 18 16 16 15 14 13 13 13 12 12 12 12 12 12 12 11 10 9 9 8 7 7 6 5 4 3 3 2 3 3 2 2 1 2
11 10 10 11 12 11 12 10 8 7 6 9 11 12 12 12 10 8 11 14 12 14 16 16 17 17 15 16 17 17 16 15 17 19 22 26 27 27 26 24 25 27 28 28 29 29 29 29 28 27 27 27 27 27 26 25 24 22 20 19 18 17 16 17 15 14 15 14 14 14 14 13 13 13 13 13 13 12 11 10 10 9 9 8 7 6 5 4 4 3 3 3 2 3 3 2 3
12 11 11 12 12 11 11 10 10 9 8 10 12 11 11 11 10 9 12 14 12 13 16 15 16 17 17 17 16 17 18 18 18 20 21 24 26 27 26 25 25 26 27 28 29 30 30 30 29 28 28 27 27 27 27 24 22 21 19 17 17 15 14 15 14 13 14 14 14 14 15 15 14 13 13 13 13 12 12 11 10 9 9 9 7 6 6 5 4 4 3 3 3 3 3 3 4
14 16 14 13 13 14 11 6 7 7 9 11 11 10 10 12 13 12 12 13 13 13 15 15 15 16 16 16 16 17 19 18 19 20 20 21 24 27 27 26 26 27 27 28 29 30 29 30 30 29 28 27 27 27 27 24 22 22 21 18 17 15 14 14 15 15 15 15 15 15 15 15 15 14 14 14 13 13 12 12 11 10 9 9 8 7 6 5 5 5 4 4 5 3 2 3 5
13 17 19 16 13 14 13 8 6 6 8 10 11 10 9 12 16 15 11 12 14 13 14 16 15 14 14 14 16 17 18 18 19 20 20 21 23 26 28 27 27 27 27 27 28 29 29 28 30 30 28 27 27 27 27 26 24 24 23 21 19 18 16 16 17 18 17 17 17 16 15 15 16 16 15 14 14 13 13 12 12 11 10 9 9 8 7 6 5 5 5 5 5 4 2 3 5
11 13 17 19 17 15 13 11 9 9 9 9 9 10 9 10 13 12 9 12 14 14 15 16 15 14 15 15 15 16 17 18 18 19 20 21 23 25 27 28 28 27 27 27 27 28 29 28 29 29 27 27 27 27 29 27 24 25 25 22 21 20 19 19 19 18 17 17 17 17 16 15 16 16 16 15 15 14 14 13 13 12 11 10 9 9 8 7 6 6 6 6 5 5 4 4 6
10 10 12 17 19 18 15 12 10 9 10 9 9 10 9 10 11 9 9 12 13 14 15 16 16 16 17 16 16 17 18 18 18 19 21 21 23 25 28 30 30 28 27 27 27 28 29 28 27 28 27 27 26 27 30 28 25 26 25 22 21 21 20 18 17 17 16 16 16 16 16 16 16 17 17 16 16 15 15 14 13 13 12 11 10 10 9 8 7 7 7 7 6 6 5 6 6
11 7 7 11 15 17 15 12 10 10 10 11 11 12 10 11 11 10 11 13 13 14 16 16 17 17 17 17 17 18 18 19 19 19 21 22 24 28 30 30 30 29 28 28 28 27 28 27 27 28 28 26 25 28 30 28 27 26 24 23 22 21 20 17 16 16 16 16 16 16 16 15 15 16 17 17 16 16 16 15 14 14 13 12 11 10 9 9 8 8 9 9 8 7 6 7 7
12 8 6 9 11 13 13 11 10 10 11 13 14 14 11 10 11 11 12 14 14 13 13 15 17 17 17 17 18 18 18 17 18 19 20 22 25 29 30 29 30 30 29 28 27 26 27 27 27 29 29 27 27 28 28 28 28 25 24 24 23 21 20 18 16 16 17 16 16 16 16 15 15 16 17 18 17 17 17 16 15 15 14 13 12 11 10 10 10 10 10 10 10 8 7 7 8
13 9 8 9 9 9 10 9 8 9 12 15 16 17 13 12 11 11 11 12 13 13 12 13 16 17 17 17 17 18 17 16 17 18 19 21 26 28 28 29 30 29 28 28 28 27 27 28 28 29 29 28 27 27 28 29 29 26 24 25 24 23 21 19 18 17 18 18 17 17 17 16 16 16 16 17 18 18 18 17 16 15 14 13 13 12 12 11 10 11 11 11 11 10 9 8 9
13 9 9 8 7 7 7 7 8 11 12 12 15 18 16 14 12 10 12 15 15 14 13 13 15 18 17 16 16 17 17 17 17 17 18 19 22 24 26 27 29 29 29 29 29 29 28 28 29 29 30 29 27 27 28 29 28 26 25 25 25 25 23 21 21 20 19 19 19 18 17 16 17 17 17 17 18 19 19 18 17 15 14 14 14 14 13 12 11 10 11 12 11 11 10 9 10
13 10 10 9 7 7 8 9 10 11 11 9 11 15 16 16 13 11 12 14 15 14 14 14 15 17 17 17 16 16 16 17 17 17 17 18 19 20 23 26 28 29 30 30 30 29 29 28 29 30 30 29 27 27 28 28 28 27 26 26 25 25 24 23 22 21 20 20 19 19 18 17 17 17 18 18 19 19 19 19 18 17 15 14 14 14 14 13 12 11 12 12 12 12 11 11 11
14 12 11 10 8 9 10 10 9 9 10 10 11 11 12 14 13 14 17 15 12 12 13 13 13 14 15 17 16 16 17 18 17 17 17 18 18 19 22 27 28 29 31 31 31 30 29 29 30 30 30 30 28 28 28 28 28 28 27 27 25 25 25 24 23 22 22 21 20 20 20 20 19 19 20 20 19 19 19 19 19 18 17 15 14 14 15 14 14 13 12 13 12 12 12 12 12
14 13 11 11 9 8 8 8 9 9 8 10 12 9 10 9 4 7 15 17 14 13 12 12 12 12 13 15 16 16 17 17 16 17 18 19 20 21 24 27 29 29 32 32 32 31 30 30 31 32 31 31 30 29 28 29 29 28 27 27 26 26 25 24 24 23 22 22 22 22 22 22 21 20 20 20 20 20 19 18 19 19 18 18 16 15 15 15 15 15 13 13 13 12 13 13 12
12 12 11 12 10 8 6 6 6 6 6 9 11 8 7 5 1 1 6 12 15 15 15 15 15 15 14 14 15 15 16 16 16 17 19 20 20 21 24 27 29 30 31 32 32 32 32 31 31 32 32 32 32 31 30 29 29 28 28 28 27 26 25 24 24 23 23 23 23 22 23 23 22 21 20 20 20 21 20 19 19 19 19 19 18 17 16 16 16 16 15 14 14 13 13 14 13
9 12 13 11 11 10 8 7 5 4 7 7 8 9 8 6 6 7 9 10 13 14 14 15 15 15 15 13 14 15 15 16 17 17 18 20 20 21 25 28 29 30 32 33 34 34 34 32 31 33 32 32 32 33 32 30 29 28 29 29 28 27 26 26 25 25 24 24 23 23 23 23 23 22 20 19 20 21 22 21 20 19 20 19 19 19 17 17 18 18 16 16 15 14 14 15 14
8 11 13 10 10 10 8 7 6 7 9 7 9 13 11 9 8 10 15 16 15 15 15 15 14 14 14 13 14 15 16 17 18 19 18 19 19 21 24 28 30 31 33 35 36 35 34 33 33 34 34 34 34 33 32 31 30 29 28 29 29 29 28 27 26 25 24 23 23 23 23 23 23 23 21 20 20 21 23 23 21 20 20 20 20 19 18 18 19 18 16 16 16 15 15 15 15
12 8 11 11 10 10 8 7 8 9 9 8 11 14 11 10 8 6 14 18 17 17 16 15 16 15 14 14 15 16 16 16 17 18 17 17 19 21 25 29 31 33 34 35 36 34 33 33 33 34 36 36 35 33 32 31 31 29 28 29 31 30 29 28 26 25 24 24 25 24 24 24 24 23 23 22 21 21 22 23 23 22 20 20 20 20 18 19 20 18 17 17 16 16 16 16 15
15 10 10 11 9 8 9 8 7 8 8 7 10 12 9 9 10 10 11 13 14 15 15 15 16 16 14 14 14 15 15 15 15 16 17 18 20 22 27 31 32 33 33 33 34 34 35 34 33 34 34 34 34 33 33 33 32 31 29 29 30 30 30 28 27 26 25 26 26 26 25 25 25 24 23 23 23 23 22 22 23 22 22 21 21 20 20 20 21 19 17 17 17 17 18 17 16
14 12 12 12 9 7 8 9 8 8 8 7 7 9 6 3 7 13 12 10 11 12 13 13 14 15 15 15 14 14 14 15 16 16 17 19 20 22 27 30 30 30 30 31 32 33 34 34 33 34 34 33 34 34 34 34 33 32 31 30 30 31 30 29 28 27 27 27 26 26 26 25 24 24 24 24 24 24 24 23 22 22 22 22 21 21 21 21 21 20 19 18 18 18 19 18 17
15 12 12 12 11 9 8 9 10 9 8 7 7 8 4 2 3 9 11 11 11 12 13 12 12 14 13 13 14 14 14 15 16 17 17 18 19 20 23 26 27 28 29 30 31 32 33 33 34 34 34 34 35 35 34 34 33 32 33 32 31 31 30 30 29 28 28 27 26 27 27 25 24 25 25 25 25 25 25 24 23 22 22 22 22 22 21 21 21 21 20 19 19 20 20 20 19
Wind_Direction
147 155 156 157 158 154 163 192 239 197 223 333 13 51 62 30 76 104 108 132 119 117 125 135 134 120 112 99 112 86 52 38 48 88 103 120 136 140 144 143 147 145 142 141 143 142 141 148 149 151 154 153 149 147 142 139 138 134 132 136 138 138 140 140 138 137 129 123 121 119 115 110 106 104 102 99 96 92 90 90 90 90 90 89 88 89 87 86 85 87 90 91 91 88 87 82 77
156 158 160 160 160 161 170 201 268 203 197 57 45 29 69 84 72 73 96 117 94 123 136 124 126 118 98 101 118 90 60 48 71 90 105 129 134 137 143 144 147 145 144 144 144 143 144 148 149 150 150 149 148 146 143 142 138 132 134 139 141 143 144 142 140 135 126 124 122 118 114 109 107 104 101 98 94 91 89 86 85 86 89 89 88 88 88 86 85 86 88 89 88 87 85 81 77
160 160 163 161 166 188 244 194 268 301 64 54 61 42 57 66 65 70 83 91 101 129 128 124 124 110 132 132 106 62 85 76 96 106 119 137 138 140 144 144 146 145 146 147 148 146 147 150 151 153 151 148 147 146 146 145 139 135 141 145 147 147 145 142 137 130 126 125 122 118 112 108 106 103 100 96 94 92 88 84 82 83 85 87 88 86 85 87 86 85 85 86 86 83 82 80 78
160 167 171 168 184 205 245 216 261 303 47 56 69 63 50 59 74 80 90 105 121 136 130 133 120 68 89 119 92 73 104 97 110 122 134 147 143 142 145 145 146 145 147 148 149 145 148 151 149 151 150 149 147 146 146 144 140 144 151 152 151 148 144 140 133 128 127 126 122 117 112 109 105 101 99 96 94 91 88 84 81 81 82 83 84 85 83 83 83 83 82 82 81 79 78 78 77
160 173 186 197 236 226 263 263 259 301 40 39 65 72 60 71 88 96 106 121 135 141 137 140 118 101 72 71 59 91 106 105 121 133 139 144 142 143 144 145 145 144 146 146 145 141 148 150 145 146 147 147 146 144 144 142 144 151 155 155 152 147 142 137 131 130 130 127 122 117 112 109 105 102 99 96 94 90 88 85 80 79 82 83 81 82 80 80 80 79 78 76 77 75 72 72 74
158 168 201 225 260 307 271 265 257 47 56 20 59 78 71 82 96 109 119 129 139 140 139 141 125 130 99 65 59 74 96 121 135 142 140 141 144 145 144 145 144 143 144 145 144 143 149 149 142 143 144 145 145 142 143 147 152 154 153 152 149 144 140 136 134 134 132 128 122 118 114 109 106 103 100 96 93 90 88 84 81 76 76 78 77 78 77 78 78 78 77 75 74 72 70 70 71
165 171 196 231 242 247 260 273 43 66 70 20 52 78 80 93 105 122 130 135 140 142 146 134 130 130 106 109 91 69 80 128 140 145 142 142 146 146 145 146 144 143 145 146 144 147 152 148 142 143 145 146 145 145 151 154 153 152 150 148 145 143 141 138 138 137 134 129 124 119 115 111 108 105 101 96 92 87 85 81 78 76 72 73 74 75 75 75 75 76 78 76 75 71 70 69 68
184 196 214 246 238 206 254 298 70 61 78 52 57 75 89 108 120 134 136 140 145 149 156 144 149 129 101 134 105 83 105 131 138 141 141 144 147 148 149 147 145 145 146 146 144 147 151 146 143 148 150 150 151 154 154 153 150 149 148 146 145 145 143 141 140 138 135 130 126 121 117 112 109 106 102 96 91 86 83 81 78 77 75 73 74 74 74 75 74 74 76 77 75 70 70 70 68
200 224 248 257 268 225 238 46 83 69 82 86 79 87 105 124 129 138 137 135 141 152 153 151 169 138 116 118 100 111 121 128 134 138 143 146 149 151 151 149 146 147 145 145 144 147 150 145 146 152 153 154 156 155 152 151 151 150 149 147 148 148 145 144 141 139 136 132 128 124 118 114 110 106 102 97 92 88 84 82 78 77 77 76 75 75 75 75 75 73 75 76 75 72 68 69 71
204 228 269 275 276 244 174 75 87 90 81 84 94 108 123 131 133 137 136 131 138 147 141 149 170 137 128 112 102 121 129 135 138 141 148 149 150 152 151 152 149 147 146 145 146 148 150 147 150 154 154 155 155 154 153 153 152 151 150 149 149 149 147 144 142 140 136 134 131 127 121 116 112 107 102 96 92 88 85 81 79 78 77 76 74 75 76 74 75 72 73 75 76 77 70 68 71
225 208 256 276 264 265 76 65 88 95 88 91 101 116 129 132 137 131 128 129 141 140 138 162 154 131 127 112 99 115 136 145 144 146 151 151 151 152 152 153 151 150 148 148 149 149 151 152 152 155 155 155 156 157 157 156 154 153 151 150 151 150 148 145 144 141 138 136 134 130 126 121 115 111 105 99 94 89 85 81 77 76 75 74 73 74 75 73 73 71 71 73 73 74 73 69 68
251 217 243 275 293 357 35 45 78 89 104 110 112 123 134 142 139 128 131 132 147 147 152 176 144 140 136 123 120 129 147 151 147 150 152 153 153 153 153 153 154 154 151 150 151 151 153 155 155 156 157 158 159 160 159 158 157 156 154 153 152 151 150 147 146 144 140 140 138 135 132 127 120 115 110 105 100 92 85 79 75 74 75 74 75 76 74 74 74 71 69 70 69 69 71 69 69
244 272 269 283 321 340 332 37 88 109 119 101 111 128 139 151 140 126 130 133 154 158 154 156 140 155 131 115 134 142 154 153 149 152 153 155 154 155 155 155 157 157 155 154 153 153 155 158 159 158 158 159 160 161 160 161 160 159 158 156 155 153 152 150 149 147 145 144 143 141 138 132 126 120 115 109 100 94 85 78 78 75 77 76 74 74 74 75 75 74 71 68 68 68 68 67 68
234 287 284 292 307 283 287 130 113 140 106 90 109 129 151 152 124 122 130 140 144 135 129 137 151 152 119 121 144 152 158 154 152 154 156 157 154 157 156 156 160 159 159 158 156 157 158 160 160 159 159 160 161 162 164 165 164 163 161 160 159 156 154 153 152 152 150 149 148 146 142 138 134 127 121 114 102 95 84 77 80 78 77 76 72 69 71 73 74 77 74 71 69 67 68 66 63
234 274 270 280 278 237 204 125 74 107 90 90 122 134 154 128 131 145 147 143 115 107 121 142 172 154 143 156 159 159 158 155 155 156 157 157 155 158 156 158 161 162 163 162 160 160 162 161 159 161 161 163 163 164 167 169 168 166 165 163 162 160 159 158 156 157 155 154 152 150 147 145 145 140 136 123 111 98 85 76 77 78 76 74 70 67 69 69 72 72 67 69 68 67 69 68 60
232 269 262 265 265 224 158 162 95 119 74 80 131 151 157 130 159 152 115 126 115 138 147 148 174 145 157 163 151 154 156 155 157 157 158 157 156 159 158 160 162 164 167 166 165 163 164 162 161 163 163 166 167 166 169 171 171 170 169 167 166 165 165 165 162 163 161 160 158 157 153 151 157 155 149 136 124 108 99 93 79 76 75 75 71 66 69 66 70 70 65 69 65 67 71 68 61
218 249 255 251 247 220 143 146 81 67 59 78 139 169 167 142 159 131 114 150 136 158 166 137 152 136 146 141 142 150 154 155 158 159 159 159 160 162 162 163 164 167 170 170 169 167 167 165 165 166 166 169 169 169 169 171 174 173 172 170 170 170 171 172 170 169 168 167 166 164 160 161 169 165 158 152 135 111 109 104 83 78 80 79 74 68 63 63 70 76 78 78 66 63 66 55 42
207 227 243 249 242 146 61 53 52 24 42 59 135 183 189 157 160 147 155 172 151 161 163 140 142 112 110 127 140 149 152 156 160 162 161 163 166 166 167 167 169 171 172 173 174 172 170 168 169 169 168 170 170 170 169 171 176 175 175 175 175 177 178 177 177 176 174 174 175 171 172 178 175 168 164 158 145 128 126 107 88 89 91 75 79 69 56 66 68 76 85 82 72 67 74 64 33
212 231 242 250 255 81 66 36 49 23 21 33 74 188 214 177 162 169 180 174 161 167 163 157 148 125 121 134 144 150 155 160 163 166 166 168 169 168 170 170 172 173 173 175 176 176 175 173 173 171 170 171 171 172 172 172 176 176 177 178 179 182 183 182 183 183 180 180 181 180 181 184 175 172 171 159 152 149 140 100 87 72 65 54 76 62 41 60 64 70 75 72 70 67 77 71 58
216 236 244 252 275 123 152 230 13 17 1 3 46 164 222 185 161 182 197 176 176 185 170 167 162 145 141 145 150 154 159 164 167 170 170 171 172 171 172 172 173 175 175 176 176 178 178 177 175 173 172 174 175 176 176 173 176 179 178 180 181 183 187 187 190 190 186 184 184 186 184 181 179 180 179 164 152 154 134 61 55 52 44 32 66 61 24 40 52 54 55 64 68 54 61 46 49
208 220 244 278 353 220 179 190 218 337 342 344 10 173 216 183 176 198 201 184 194 205 186 178 169 154 151 153 156 159 163 167 170 173 173 174 175 175 175 174 175 175 175 176 177 179 181 180 178 175 175 179 180 180 180 178 178 181 180 182 184 183 190 191 193 194 189 186 187 188 183 179 185 185 183 176 168 171 164 150 75 71 64 20 54 65 26 34 47 47 34 56 65 48 58 39 34
224 220 244 260 260 229 152 157 194 238 304 325 301 239 219 178 197 213 205 204 197 191 188 182 171 159 156 159 161 163 167 170 174 176 176 177 177 177 177 176 177 176 177 179 178 180 182 183 182 179 178 181 184 184 184 183 183 185 184 184 186 188 192 193 193 194 191 188 188 189 184 184 191 190 189 188 182 181 177 176 169 146 151 82 42 32 33 26 29 40 29 37 40 40 49 40 25
239 228 236 242 249 246 207 208 211 232 274 294 288 272 231 195 214 219 211 220 144 98 168 171 166 161 159 161 164 167 170 173 176 178 178 178 179 179 178 177 177 177 180 182 180 181 183 184 185 183 182 182 185 187 185 185 186 189 187 185 188 191 193 194 195 195 191 189 190 190 189 191 193 194 193 194 191 188 190 186 179 180 187 146 47 17 15 8 6 13 21 21 14 9 10 15 7
235 244 239 237 244 246 249 252 240 249 267 276 276 270 238 216 225 216 211 221 209 108 152 155 154 157 160 163 169 172 172 175 177 179 180 180 180 180 179 178 178 178 181 184 182 182 185 186 186 186 185 185 186 187 187 188 190 191 190 188 190 194 195 195 196 193 189 190 192 193 195 197 196 196 194 194 198 196 196 194 192 198 194 174 84 36 8 358 357 355 359 358 351 347 343 336 341
228 243 248 246 250 250 254 255 253 256 262 264 259 258 242 225 238 234 217 212 186 149 146 146 151 157 163 168 172 174 174 176 177 178 180 181 181 180 179 180 179 179 182 184 184 184 185 186 186 188 187 188 188 188 190 191 192 194 194 194 193 196 198 196 194 192 190 192 196 197 198 201 200 198 196 195 200 199 199 202 202 199 188 183 173 42 3 352 350 349 346 342 340 337 336 334 337
221 235 247 254 257 259 259 257 257 256 255 254 250 251 245 230 240 244 226 204 171 153 148 147 154 161 166 171 173 175 177 178 178 178 180 180 181 182 181 181 182 182 183 184 185 185 185 186 187 189 189 189 189 189 191 192 193 195 195 197 196 197 200 197 194 194 193 195 198 200 201 204 204 200 196 197 201 199 198 204 205 197 188 193 190 150 330 334 344 342 333 329 333 334 343 349 340
208 234 251 256 263 265 261 260 257 259 256 247 247 254 254 232 224 235 215 183 163 153 152 154 159 165 168 172 174 176 179 180 180 180 181 181 182 184 184 183 184 183 183 184 185 186 185 186 189 190 190 189 190 191 192 193 195 196 196 197 199 200 201 198 198 199 198 199 200 202 204 205 207 206 198 197 201 200 198 202 206 198 191 198 199 168 193 326 349 333 321 321 324 332 346 350 343
251 255 263 255 259 258 253 256 253 252 251 241 244 255 259 228 212 229 196 161 163 162 157 160 165 167 170 173 174 176 181 182 182 183 184 184 184 185 185 185 185 183 184 185 185 186 185 187 189 189 190 190 191 193 192 194 197 197 196 198 201 202 201 200 202 203 202 202 202 202 206 206 208 210 203 201 205 204 200 201 202 202 199 192 199 198 170 347 345 319 317 318 319 331 339 347 348
252 256 267 260 257 254 245 247 246 240 243 236 237 254 249 218 216 224 181 159 168 170 162 164 168 168 170 173 174 176 181 182 184 188 187 186 186 187 188 186 184 183 184 186 185 186 188 188 188 189 190 191 192 194 194 196 198 197 197 198 201 201 202 203 203 205 205 203 204 203 205 209 209 209 207 205 209 211 205 205 205 202 204 196 198 200 176 205 284 291 303 310 311 324 335 353 351
242 239 254 262 255 250 238 236 237 235 240 225 221 256 242 206 210 206 166 167 174 172 169 169 169 169 171 173 175 177 180 183 187 190 189 188 189 190 191 190 187 185 183 184 186 187 189 188 189 190 191 193 193 195 196 197 198 198 198 198 200 201 202 205 204 206 205 204 204 203 204 209 210 208 208 206 211 217 212 210 210 203 203 202 203 203 196 229 244 269 282 290 307 332 351 1 350
230 230 236 248 250 238 219 215 227 226 213 200 216 255 260 185 180 177 164 174 178 175 175 172 170 169 171 174 176 180 180 185 188 189 190 191 192 193 194 192 189 188 185 185 187 187 189 189 190 192 192 194 195 196 196 197 198 199 199 199 200 202 202 205 206 205 205 205 204 204 206 208 211 210 208 209 212 218 218 215 213 204 200 206 212 212 212 234 243 260 276 297 333 4 5 357 342
217 224 223 224 237 238 209 184 212 225 181 184 214 245 259 163 146 164 167 181 184 180 178 174 174 172 171 175 177 181 182 185 189 191 192 193 196 196 196 196 194 192 189 187 187 187 190 190 191 192 193 194 195 197 197 196 199 200 201 200 200 202 203 206 206 205 204 205 204 206 209 209 213 215 211 212 215 219 221 219 216 209 208 214 214 216 221 232 242 241 236 335 26 25 353 336 330
208 220 231 220 219 229 217 184 206 231 212 198 216 246 264 149 138 164 170 186 190 186 182 176 177 175 173 176 177 180 181 183 189 192 193 195 197 198 197 198 197 196 194 190 187 187 190 190 191 193 193 194 195 196 197 196 198 200 202 202 201 203 205 208 207 206 205 204 205 205 210 211 213 217 215 215 218 222 225 224 222 217 217 218 215 221 228 230 233 214 173 100 75 40 337 332 334
203 209 231 233 223 224 219 185 182 218 225 221 222 240 262 215 151 173 176 187 195 195 188 179 179 177 176 177 178 180 181 184 188 190 192 193 195 197 198 197 197 197 196 194 191 189 190 190 191 194 194 194 194 195 196 197 198 198 202 203 203 204 207 211 208 207 207 204 206 206 208 209 211 216 217 217 221 225 229 231 228 226 227 228 225 228 233 237 232 195 161 149 123 56 344 340 331
208 205 217 230 226 229 229 205 159 190 218 229 229 234 246 234 188 180 183 190 199 203 194 185 182 179 178 180 180 181 183 186 187 187 189 190 193 195 196 196 195 196 196 196 194 191 191 190 191 194 194 193 194 195 195 196 198 199 201 203 204 206 208 212 211 210 208 207 207 206 207 208 210 215 217 218 222 225 230 233 232 231 235 237 236 235 240 249 246 214 180 166 156 128 343 336 320
223 217 216 224 222 228 233 223 170 196 231 236 241 246 247 243 211 186 188 193 201 205 197 191 187 182 182 183 184 184 185 188 185 185 186 186 191 192 193 194 194 196 196 195 194 192 192 191 191 193 193 193 192 193 194 195 197 199 201 203 204 207 208 211 213 213 210 209 208 206 207 209 211 214 216 217 219 224 228 231 232 232 235 239 241 242 245 254 254 240 196 171 168 193 297 321 288
235 226 219 228 231 228 227 219 185 209 250 244 247 260 259 259 244 202 189 194 201 205 200 196 193 188 187 188 188 186 187 186 180 182 185 185 187 189 190 192 192 194 195 194 194 193 193 191 191 192 192 192 191 191 193 195 196 197 200 202 204 205 207 209 212 213 212 210 208 205 207 209 211 213 214 215 217 223 226 228 231 231 233 236 241 244 247 251 247 226 184 169 183 220 264 261 191
227 228 223 229 233 234 234 224 185 195 245 252 253 265 262 259 261 224 192 198 202 202 202 199 197 194 192 192 191 186 184 182 178 181 184 185 186 186 188 190 191 192 193 194 195 194 193 193 193 192 190 191 193 193 194 196 197 197 198 200 202 202 204 207 209 211 211 209 206 207 209 209 213 214 214 214 217 222 225 226 228 228 229 231 238 242 243 244 237 221 191 179 203 236 263 250 144
222 230 231 234 231 233 239 227 207 214 241 254 253 262 264 258 261 233 200 203 205 205 207 202 198 197 195 195 192 187 182 180 180 181 183 185 185 185 186 189 191 191 192 194 195 195 194 195 195 193 191 192 194 194 194 196 197 197 196 197 198 199 201 204 207 209 210 209 207 209 212 213 214 214 214 215 218 221 224 225 225 225 225 225 232 236 237 239 231 220 208 203 226 233 230 195 184
224 229 228 233 230 228 235 217 209 225 238 254 261 265 265 259 252 232 211 207 205 209 211 207 203 200 199 196 192 187 184 182 183 182 183 184 185 185 185 187 189 190 191 192 194 195 195 196 196 194 193 193 194 195 195 195 195 194 196 195 196 199 201 202 206 208 207 209 209 210 212 213 214 214 213 214 217 220 223 224 224 222 222 222 227 232 233 232 222 214 212 218 231 233 214 174 177
224 227 229 232 229 229 238 217 195 221 230 237 254 264 261 252 245 235 215 202 202 206 209 210 209 207 204 199 194 191 188 185 184 184 184 184 185 186 186 186 188 189 191 192 193 194 196 197 196 194 195 194 194 194 193 193 193 193 195 195 197 200 203 202 204 207 206 209 212 213 212 212 213 213 212 213 215 218 221 222 223 221 221 221 223 228 230 227 219 214 215 219 225 239 239 174 164
224 224 229 235 237 234 237 232 222 237 232 220 231 252 256 242 241 240 215 194 197 199 203 208 208 206 205 201 197 195 192 188 186 187 185 185 185 186 186 187 188 189 190 191 192 193 195 196 195 195 194 195 196 193 191 191 192 194 193 193 195 197 201 203 204 205 206 209 213 214 213 210 211 211 212 213 213 216 220 220 222 222 222 222 224 227 224 221 216 211 214 216 217 229 239 202 177
229 220 223 229 237 239 234 230 232 243 249 235 225 243 260 247 239 237 210 194 198 196 202 206 203 203 202 201 199 196 194 191 189 190 188 186 185 185 187 188 189 190 189 190 191 192 194 194 194 194 194 197 197 194 192 190 192 195 192 191 194 195 199 203 204 205 206 208 211 212 211 208 208 210 211 213 213 215 218 220 223 224 224 224 226 227 223 219 214 205 210 213 210 212 211 211 196
230 219 218 220 224 231 231 231 237 247 259 251 224 230 259 258 243 233 209 201 200 196 202 204 201 204 204 202 201 197 196 193 190 191 191 189 187 187 188 189 190 190 188 188 190 191 192 192 192 193 195 197 197 196 195 192 193 196 192 192 197 199 202 204 203 204 206 207 208 208 207 206 206 208 210 213 214 214 217 221 224 225 225 225 225 226 224 219 212 204 208 209 205 205 202 208 206
227 215 218 221 219 225 229 235 243 248 254 248 226 223 246 255 243 237 224 215 208 201 202 204 203 204 205 205 204 201 199 196 192 192 192 192 190 190 190 189 189 189 189 189 189 190 191 191 191 192 195 197 198 198 195 194 198 197 192 194 199 202 205 206 202 201 201 202 203 203 204 206 207 208 210 213 214 215 217 221 224 226 227 225 225 226 225 218 210 204 206 206 201 202 203 204 205
220 201 204 220 218 223 228 234 242 243 245 245 232 226 238 253 243 231 224 218 218 214 206 204 203 201 203 206 206 203 200 198 197 195 194 194 193 192 190 188 188 189 190 189 187 188 189 190 191 193 194 197 200 197 193 196 201 198 195 197 200 202 203 204 202 199 198 198 200 201 202 206 209 210 211 213 216 216 218 221 223 227 228 226 225 226 224 217 210 205 207 208 202 200 201 201 201
212 200 203 214 211 219 226 228 235 240 242 239 233 230 237 255 248 229 223 218 218 225 218 205 199 198 202 205 207 205 200 198 199 197 195 195 195 194 190 188 189 190 188 187 187 188 189 190 191 192 194 196 198 196 193 198 201 199 198 199 201 202 201 200 200 198 197 198 201 203 205 208 211 214 214 214 217 217 218 221 223 226 227 225 224 225 223 218 213 207 206 209 206 201 199 199 201
210 201 204 211 206 210 220 216 219 234 240 232 228 228 233 247 247 230 228 223 218 225 225 209 197 196 200 203 206 206 201 199 198 197 195 193 193 193 192 190 189 188 188 188 188 188 189 190 191 192 194 195 196 195 196 199 201 200 201 203 204 204 202 201 201 200 198 199 203 205 206 209 212 214 214 215 217 216 216 219 221 222 223 223 223 223 222 219 214 207 205 208 207 205 202 198 200
207 202 204 208 197 194 207 209 212 230 238 231 227 225 228 242 246 239 238 231 222 225 228 221 206 198 197 199 204 203 201 200 198 197 194 191 191 191 191 191 188 188 190 190 190 189 188 190 191 192 194 194 195 196 197 199 201 202 203 205 206 206 205 205 204 204 203 203 205 205 205 208 210 212 213 214 215 214 213 214 216 216 217 219 221 223 222 220 215 208 207 210 209 207 204 199 201
200 200 201 202 196 194 205 211 216 232 233 223 222 225 233 244 248 239 234 233 228 223 222 224 217 205 199 198 201 201 200 201 198 197 195 192 190 189 190 189 188 189 189 189 190 189 189 189 190 192 194 194 194 196 198 200 202 204 204 205 206 206 206 206 207 208 207 207 207 207 207 210 212 213 214 215 215 214 213 213 212 213 215 213 215 220 223 220 214 211 210 211 212 210 205 202 203
200 202 207 211 211 209 210 211 218 230 227 205 200 211 231 236 245 237 227 221 219 220 219 222 224 217 207 200 200 200 200 201 199 197 198 195 191 188 188 188 188 189 189 189 190 189 189 189 189 191 192 193 194 196 198 201 204 205 205 205 206 207 207 207 209 210 209 209 209 208 210 212 214 216 217 216 215 213 213 212 211 212 214 212 210 215 221 220 215 214 214 214 214 212 208 205 204
197 200 210 215 215 220 231 240 242 251 241 205 195 210 232 227 161 152 214 207 207 217 223 223 225 222 214 204 199 200 201 200 199 199 200 198 193 189 188 188 188 188 188 189 190 189 189 189 188 190 191 192 194 196 198 201 204 205 205 206 207 207 206 206 208 209 209 210 210 209 211 214 216 217 217 215 213 212 212 211 211 213 213 214 212 212 217 218 215 216 216 215 214 213 210 207 204
187 198 213 212 209 222 237 245 257 271 251 217 201 221 233 245 244 214 205 203 199 208 214 215 219 218 213 206 199 200 201 199 199 200 200 197 194 191 190 189 188 187 188 189 190 190 189 188 187 189 190 192 194 197 199 201 203 204 204 205 206 207 207 207 208 209 209 209 210 211 213 215 216 217 216 214 212 213 214 213 212 213 213 214 215 214 216 218 217 218 217 214 213 213 213 209 205
192 197 204 198 206 225 239 238 225 224 238 227 217 228 227 231 241 211 204 209 205 206 210 211 213 211 209 206 202 203 201 199 200 200 199 196 194 194 193 191 190 189 189 189 188 189 189 188 187 187 189 192 194 196 197 198 200 202 202 203 205 207 208 209 210 209 209 208 210 211 213 214 215 215 215 214 211 212 215 215 213 212 212 213 215 214 214 217 217 217 216 216 214 212 214 211 205
218 210 193 190 204 211 212 227 226 219 232 234 227 233 231 225 230 207 204 209 209 210 211 213 213 208 207 207 206 206 204 201 201 201 198 196 196 196 195 194 193 191 190 189 187 187 188 190 190 189 191 192 193 193 194 196 199 201 203 204 205 207 208 209 210 209 208 209 211 211 212 213 214 214 213 212 211 210 212 213 213 213 213 212 213 212 211 212 215 215 213 215 215 212 213 213 206
218 221 202 199 210 210 204 212 225 226 233 237 229 230 232 228 228 223 211 206 208 209 206 212 217 214 210 210 208 205 201 202 202 201 200 197 198 198 198 198 196 192 190 189 188 187 189 190 190 192 193 192 191 192 193 196 199 201 203 204 205 206 208 209 209 207 208 210 212 212 212 213 212 212 212 211 212 212 211 212 214 214 214 213 212 211 209 209 212 212 209 212 215 212 213 214 211
203 211 207 201 201 212 216 212 215 228 236 239 238 236 233 216 217 221 216 204 204 207 206 209 217 219 216 215 215 204 196 200 202 202 201 199 200 201 199 200 198 194 191 190 190 189 190 190 191 193 194 191 192 193 193 196 198 200 201 203 204 206 207 209 208 207 209 211 212 212 213 213 212 211 211 211 212 213 212 213 214 214 213 213 211 209 207 206 208 209 207 209 211 211 213 216 215
196 205 205 200 199 204 212 210 209 221 235 237 245 253 253 83 162 209 211 208 207 212 217 214 214 220 220 219 220 207 196 199 201 202 202 201 201 202 200 198 197 196 194 192 192 192 191 191 193 194 193 193 194 194 194 195 196 198 201 202 203 205 206 208 208 207 209 211 211 212 213 212 212 211 210 210 211 213 213 214 214 214 213 212 210 208 207 204 206 207 205 206 207 208 213 217 218
Height
788 790 791 793 793 796 797 797 806 801 796 798 779 780 784 768 769 770 776 778 777 779 770 769 768 770 775 779 783 785 789 792 797 803 812 806 800 807 807 810 812 814 816 817 820 821 823 825 826 827 829 830 831 832 833 834 835 836 838 840 841 843 843 845 845 847 848 849 850 850 850 850 851 851 851 851 851 851 851 851 851 851 851 851 852 851 851 851 852 852 852 852 852 852 852 852 852
788 791 790 793 792 796 796 795 806 793 783 792 780 777 774 765 769 771 775 774 774 774 766 767 769 772 772 772 775 782 791 790 789 793 797 799 803 808 808 811 812 815 816 818 820 822 824 825 827 829 830 831 832 833 834 835 836 837 839 841 842 844 845 846 847 848 849 850 850 851 851 851 852 852 852 852 852 852 852 852 852 852 852 852 853 852 852 852 853 852 853 853 853 853 853 853 853
788 789 789 792 791 793 791 794 803 787 781 792 785 774 767 769 773 772 771 769 770 767 767 770 772 774 774 779 780 786 796 790 787 791 796 801 803 806 810 812 813 816 817 819 821 822 825 825 827 829 830 831 832 833 835 836 837 838 840 842 844 845 846 847 848 849 850 851 851 852 852 852 853 853 853 853 853 853 853 853 853 853 853 853 853 853 853 853 853 853 853 853 853 853 853 853 853
787 788 787 787 789 793 792 793 793 781 783 787 784 775 767 772 773 771 769 767 767 766 771 773 778 775 774 786 784 786 795 790 789 792 797 802 802 806 810 812 814 816 818 820 821 823 824 825 827 828 830 832 833 834 835 837 838 840 842 844 845 846 847 848 849 850 851 852 852 853 853 853 853 854 854 854 854 854 854 854 854 854 854 854 854 854 854 854 854 854 854 854 854 854 854 854 854
786 787 786 785 791 792 788 788 780 776 780 776 779 776 767 770 770 772 769 768 767 768 772 773 782 778 774 783 781 789 795 791 792 792 797 801 803 807 809 812 814 816 819 820 822 824 824 826 827 829 831 832 833 835 836 838 840 842 843 845 846 847 848 849 850 851 852 853 853 853 854 854 854 855 855 855 855 855 855 855 855 855 855 855 855 855 855 855 855 855 855 854 854 854 854 854 854
785 787 785 784 787 785 790 791 779 775 772 765 773 772 765 767 768 771 770 769 766 766 770 772 780 780 783 784 780 787 791 790 793 793 797 801 805 808 810 812 814 816 819 820 823 824 825 827 828 830 832 833 835 836 837 839 841 843 844 846 847 848 849 850 851 852 853 853 854 854 854 855 855 855 856 856 856 856 856 856 856 856 856 855 855 855 855 855 855 855 855 855 855 855 855 855 855
784 788 786 788 787 785 794 788 776 775 767 760 766 767 764 765 765 769 772 773 772 769 770 772 773 781 790 786 785 788 788 789 789 794 798 802 806 808 811 813 814 817 819 822 824 825 827 828 829 831 833 834 836 837 839 841 843 844 845 847 848 849 850 851 852 853 853 854 854 855 855 856 856 856 856 856 856 856 856 856 856 856 856 856 856 856 856 856 856 856 856 856 856 856 856 856 856
783 785 783 790 790 786 789 778 770 772 766 759 759 761 763 764 764 769 773 775 777 775 773 774 771 784 792 784 792 794 789 790 790 796 800 803 807 809 812 813 815 817 820 822 824 826 827 829 831 832 834 836 837 839 841 842 844 845 846 847 849 850 851 852 853 854 854 855 855 856 856 856 857 857 857 857 857 857 857 857 857 857 857 857 857 857 857 857 856 856 856 856 857 857 857 857 857
781 783 782 786 789 785 781 774 770 767 764 761 759 761 761 761 763 768 773 774 775 775 776 774 772 787 793 788 796 794 789 792 794 798 801 805 807 809 812 813 816 817 820 823 825 827 828 830 832 834 835 837 838 840 842 844 845 846 847 848 849 851 851 853 853 854 855 855 856 856 857 857 857 857 858 858 858 858 858 858 858 858 858 858 857 857 857 857 857 857 857 857 857 857 857 857 857
780 783 784 786 789 787 778 773 771 768 764 760 760 761 760 760 762 766 771 774 773 775 775 771 774 785 790 794 798 793 792 794 796 800 802 806 808 810 812 814 816 818 821 823 825 827 829 831 832 835 836 838 840 841 843 844 846 847 848 849 850 851 852 853 854 855 855 856 856 857 858 858 858 858 859 858 859 858 858 858 858 859 858 858 858 858 858 858 858 858 858 858 858 858 858 858 858
785 781 781 787 787 782 776 775 771 767 764 759 760 759 758 759 762 766 768 773 772 774 776 773 779 782 787 797 798 793 793 795 797 801 803 806 809 810 812 814 817 819 821 823 826 828 829 832 833 836 837 839 840 842 844 845 846 847 848 850 851 852 853 854 854 855 856 857 857 858 858 858 859 859 859 859 859 859 859 859 859 859 859 859 858 858 858 858 858 858 858 858 858 858 858 858 858
789 782 780 790 784 777 775 776 771 767 765 763 765 760 756 758 764 769 770 773 773 776 777 774 778 777 788 798 797 794 794 796 798 801 805 807 809 811 813 815 818 820 822 824 826 828 830 832 834 836 838 840 841 842 844 845 847 848 849 850 851 852 853 854 855 856 856 857 858 858 859 859 859 859 860 860 860 859 859 859 859 859 859 859 859 859 859 858 858 858 858 858 858 858 858 858 858
787 783 783 789 778 776 776 773 771 769 768 764 764 759 754 760 766 767 769 772 773 778 776 770 771 773 787 796 795 795 794 795 798 802 805 807 810 812 814 816 818 821 822 824 826 828 831 832 834 836 838 840 841 843 844 846 848 848 850 850 852 853 853 855 855 856 856 857 858 858 859 859 860 860 860 860 860 860 860 860 860 860 859 859 859 859 859 859 859 859 859 858 858 858 858 858 858
780 779 783 787 777 775 774 772 771 771 771 762 759 757 756 761 762 761 766 774 775 773 770 765 767 776 788 795 798 795 792 795 799 803 805 808 810 812 814 816 819 821 823 825 827 829 830 832 834 836 838 840 842 843 845 846 848 849 850 851 852 853 854 855 855 856 857 858 858 859 859 860 860 860 860 860 860 860 860 860 860 860 860 860 860 860 859 859 859 859 859 859 859 858 858 858 858
775 775 780 786 779 774 771 771 770 771 771 760 757 757 759 759 757 761 764 772 775 765 765 766 765 777 787 792 796 790 789 795 799 803 805 808 810 812 815 817 820 822 824 825 827 829 830 833 834 837 838 840 842 843 845 846 848 849 850 851 852 853 854 855 856 856 857 858 858 859 860 860 860 860 861 861 861 860 860 860 860 860 860 860 860 860 860 860 859 859 859 859 859 859 859 859 859
769 773 782 787 781 776 770 768 767 772 768 757 755 754 763 762 755 762 760 761 771 765 766 771 768 774 779 779 784 783 787 795 798 803 805 808 810 813 815 816 820 822 824 825 827 829 830 833 835 837 839 840 842 843 845 846 848 849 850 851 852 853 854 855 856 857 857 858 859 859 860 860 860 860 861 861 861 861 860 861 860 860 860 860 860 860 860 860 860 860 859 859 859 859 859 859 859
767 777 788 787 779 775 768 765 768 770 763 756 756 754 765 768 758 759 755 756 769 770 769 771 768 769 771 772 777 781 788 794 798 802 804 808 810 812 814 816 819 821 824 825 827 829 830 833 835 837 838 840 842 843 845 846 848 849 850 851 852 853 854 855 856 857 858 858 859 859 860 860 861 861 861 861 861 861 861 861 860 860 860 860 861 860 860 860 860 860 859 859 859 859 859 859 859
774 783 788 783 775 769 762 761 762 761 760 758 757 756 762 769 765 759 760 764 767 771 771 770 770 769 769 772 778 783 789 793 797 800 802 806 808 810 812 814 817 820 822 824 826 828 830 832 834 836 838 840 842 843 845 846 847 849 850 851 852 853 854 855 856 857 858 858 859 859 860 860 861 861 861 862 862 862 861 861 861 860 860 861 861 861 860 860 860 859 859 859 860 860 859 859 859
776 780 784 778 766 761 756 757 756 757 760 758 756 755 758 763 763 760 766 772 770 775 776 773 776 775 774 776 781 785 788 793 795 798 801 803 805 808 810 813 816 818 820 823 825 827 829 831 833 835 837 838 841 842 844 845 847 848 850 851 852 853 854 855 856 857 858 859 859 859 860 860 861 861 861 861 861 862 861 861 861 861 861 861 861 860 860 860 860 859 859 860 860 859 859 859 859
772 774 783 771 757 757 754 754 755 754 756 757 757 755 757 756 756 759 765 771 772 775 775 775 780 779 778 779 781 785 788 792 794 796 799 802 804 806 808 811 814 816 819 821 824 826 828 830 832 834 836 838 840 842 843 845 847 848 850 851 852 853 854 855 856 857 858 859 859 859 860 860 861 861 861 861 861 862 861 861 861 861 861 861 860 860 861 860 859 859 859 859 859 859 859 859 859
768 770 776 762 754 759 754 751 752 751 752 755 756 757 759 753 752 759 763 772 775 769 766 768 774 775 777 778 780 784 787 790 793 795 797 800 802 804 807 809 813 815 818 821 823 825 827 830 832 834 836 837 839 841 843 844 846 848 849 850 852 853 854 855 856 857 857 858 858 859 860 860 861 861 861 861 862 862 862 862 861 861 862 861 861 861 861 860 859 859 859 858 859 859 860 860 859
766 766 764 756 755 760 752 749 751 751 752 754 757 759 757 751 754 757 761 771 769 759 756 758 763 768 771 775 778 782 785 788 790 792 795 798 801 803 806 808 812 815 818 820 821 824 827 829 831 833 835 836 839 840 842 844 845 847 848 849 851 852 853 854 855 856 857 857 858 859 859 860 860 861 861 861 862 862 862 862 861 862 862 861 861 861 861 860 860 859 859 858 859 859 859 860 860
769 764 756 754 754 757 752 749 752 751 754 757 757 754 750 754 759 754 757 763 754 747 748 752 757 762 767 771 776 779 782 786 787 790 792 795 799 801 804 807 810 813 816 818 821 824 826 828 830 832 834 836 838 840 842 843 844 846 847 849 850 851 852 853 854 855 856 856 857 858 859 860 860 860 861 861 861 861 862 862 862 862 862 862 861 861 861 860 860 859 859 859 859 859 859 859 860
768 765 755 753 752 753 751 748 751 750 754 754 750 750 751 759 760 752 755 754 746 746 745 749 755 760 767 771 775 778 780 784 786 789 791 794 797 800 802 805 809 812 815 818 820 822 825 827 829 831 833 835 837 839 841 842 844 845 846 848 849 850 851 852 853 854 855 856 857 858 858 859 859 860 860 861 861 861 861 861 861 861 861 861 861 861 860 860 860 859 859 858 858 859 859 859 859
766 764 756 752 751 750 748 748 749 749 750 747 747 753 753 753 752 752 754 749 745 747 746 749 756 761 767 771 775 777 780 783 785 789 792 794 797 799 802 805 807 811 813 816 819 821 824 826 828 830 832 834 836 838 840 841 843 844 846 847 848 849 850 852 853 853 854 855 856 857 858 859 859 859 860 860 861 861 861 861 861 861 861 861 861 860 860 860 860 859 859 858 858 859 859 859 859
758 758 755 753 753 749 747 747 747 747 745 745 751 755 750 744 748 753 749 744 744 746 749 753 758 764 767 770 774 776 780 782 784 787 790 793 796 798 801 803 805 808 812 814 817 820 822 825 827 829 831 833 835 837 839 840 842 843 845 846 847 848 849 851 852 853 854 854 855 856 857 858 858 859 859 859 860 860 860 860 860 860 861 860 860 860 860 860 860 859 859 859 859 858 859 859 859
749 753 753 752 752 747 746 747 745 744 743 743 751 755 747 740 749 758 744 737 744 748 754 755 759 765 766 769 772 775 779 780 783 786 789 791 794 797 799 801 804 807 810 813 815 818 821 824 825 827 830 832 834 836 837 839 841 842 844 845 847 847 849 850 851 852 853 853 854 855 855 856 857 858 858 859 859 859 860 860 860 860 860 860 860 860 860 860 860 860 859 859 859 858 859 859 859
748 753 755 752 750 747 745 746 743 743 744 740 744 750 745 741 750 753 739 736 744 750 756 757 760 764 765 768 770 773 777 779 783 784 786 789 791 795 797 799 802 805 808 811 814 817 819 822 824 826 829 831 833 834 836 838 839 841 843 844 845 846 848 849 850 851 851 853 853 854 854 855 856 857 857 858 858 859 859 859 859 859 859 859 860 860 860 860 860 860 859 859 859 859 859 859 859
751 753 760 756 750 749 744 742 740 741 744 734 739 755 752 747 749 741 734 738 743 749 755 757 760 762 764 767 769 773 775 777 781 782 784 787 790 793 795 798 801 803 806 809 812 815 818 820 823 825 827 830 831 833 835 837 838 840 841 843 844 845 846 848 849 850 850 851 852 852 854 854 855 856 856 857 857 858 858 858 859 859 859 859 859 859 859 859 859 859 859 859 859 859 858 858 858
754 753 761 760 757 754 739 735 736 738 740 729 742 767 756 741 740 734 732 738 743 750 754 755 758 761 764 766 769 772 773 775 777 780 783 786 790 792 794 797 799 802 805 808 811 813 816 819 821 824 826 828 830 832 834 835 837 838 840 841 843 844 845 847 847 849 849 850 851 852 853 853 854 855 856 856 856 857 857 858 858 858 858 858 859 859 859 859 859 859 859 859 859 858 858 858 858
756 757 759 761 766 757 733 731 737 740 737 726 744 770 752 733 734 731 731 737 742 749 752 753 756 758 762 764 768 771 771 773 775 778 782 784 788 790 793 796 798 801 803 806 809 812 815 817 820 822 825 827 829 831 833 834 836 837 839 840 842 843 844 845 846 847 848 849 850 851 851 852 853 854 855 855 856 856 856 857 857 857 857 858 858 858 858 858 858 858 858 859 858 858 858 858 858
755 763 766 761 763 755 735 730 737 741 737 729 746 765 748 731 732 731 731 736 740 747 749 750 753 755 759 762 765 768 769 770 773 776 780 782 785 788 791 794 797 800 802 805 807 810 813 815 818 820 823 826 827 830 832 834 835 836 838 839 840 842 843 844 845 846 847 848 849 850 850 851 852 853 854 854 855 855 856 856 856 857 857 857 858 857 857 857 857 857 858 858 858 858 858 857 858
756 763 766 757 757 756 744 733 730 733 737 735 744 756 746 734 733 731 732 736 740 745 746 748 752 753 756 759 762 765 767 769 771 773 777 780 783 786 789 792 795 798 801 804 806 808 811 813 817 818 821 824 826 829 831 833 835 836 837 838 839 841 842 843 844 845 846 847 848 849 849 850 851 852 853 854 854 855 855 855 856 856 856 856 857 856 856 856 856 857 857 858 858 858 858 857 857
759 760 762 752 749 753 750 740 730 729 738 741 741 747 746 737 734 734 732 735 739 743 745 746 749 751 753 756 759 761 764 767 768 769 773 777 780 784 787 790 793 796 799 802 804 807 809 812 815 817 819 822 825 827 830 832 833 835 836 837 838 839 841 842 842 844 844 845 846 847 848 849 850 851 852 853 853 854 854 855 855 855 856 855 856 856 856 856 856 856 857 857 858 858 858 857 858
757 758 760 756 749 751 750 743 734 732 739 742 741 745 743 735 732 735 733 733 739 741 742 744 746 749 752 753 756 758 761 764 764 765 770 774 778 782 785 788 792 794 797 800 803 806 808 811 813 816 818 820 823 826 828 831 832 834 835 836 837 838 839 840 841 842 843 844 845 846 847 847 849 849 850 851 852 853 853 854 854 855 855 855 855 855 855 855 855 856 856 857 858 858 858 858 858
747 747 752 755 751 750 744 737 731 732 742 744 742 744 740 733 731 734 733 731 737 739 739 743 745 747 750 752 754 755 758 760 760 763 767 771 775 779 783 786 789 793 795 798 801 804 806 809 811 814 816 818 821 824 826 829 830 832 833 834 835 836 838 839 840 841 841 842 843 844 845 846 847 848 849 850 851 851 852 853 853 854 854 854 854 854 855 855 855 856 856 857 857 858 858 858 858
742 742 747 749 748 746 737 734 731 731 744 745 737 739 737 734 730 729 731 732 736 739 739 742 743 745 748 749 751 752 755 755 756 761 765 769 773 777 781 784 787 790 793 796 799 801 804 806 809 811 814 816 818 821 823 825 826 828 830 831 832 834 836 837 838 839 840 841 842 843 843 845 846 847 848 849 849 850 851 852 852 853 853 853 853 854 854 855 855 855 855 856 857 857 857 857 858
744 744 746 747 746 743 733 731 732 730 744 745 735 740 738 732 728 723 727 734 736 735 737 740 741 742 744 746 748 749 751 752 754 759 762 766 770 774 778 781 784 787 790 793 796 798 802 804 806 808 811 813 815 817 820 821 823 825 826 828 830 832 833 835 836 837 838 839 840 841 842 843 844 845 846 847 848 849 849 850 851 851 852 852 853 853 853 854 854 855 855 856 856 857 857 857 858
747 745 747 748 741 739 735 730 732 732 742 745 738 741 739 728 724 722 725 730 731 729 730 734 737 740 742 743 745 747 750 751 753 756 758 762 766 770 775 778 781 784 787 791 793 796 799 801 803 806 808 810 812 814 816 818 820 822 824 826 828 829 831 833 834 835 836 837 838 839 840 842 843 844 845 846 847 847 848 849 850 850 851 851 852 852 852 853 854 854 855 855 856 856 857 857 858
746 744 746 746 736 741 744 735 733 733 736 741 738 741 738 728 724 723 722 723 725 725 725 726 730 734 736 737 739 743 748 751 752 753 755 758 762 766 770 774 777 781 784 787 790 793 796 798 800 803 805 807 809 811 813 816 818 821 823 824 826 828 829 831 832 833 834 835 836 837 838 840 841 842 844 845 845 846 847 848 849 849 850 850 851 851 852 852 853 854 854 855 855 855 855 856 858
743 739 741 741 735 738 740 734 734 735 734 734 740 749 743 730 729 725 718 719 723 723 724 726 726 727 730 732 735 738 742 745 749 751 752 753 757 761 765 770 773 777 780 783 786 789 792 795 797 800 802 804 806 808 811 814 816 819 821 823 825 826 828 829 830 831 832 833 834 835 837 838 839 840 842 843 844 845 845 846 847 848 849 849 850 850 851 852 852 853 854 855 855 855 855 855 857
742 736 733 735 735 735 735 736 741 749 749 734 737 763 754 728 725 723 715 721 726 723 725 728 727 727 730 733 734 735 737 740 743 745 747 749 752 757 762 766 769 772 776 779 783 786 789 792 794 797 799 801 804 805 808 811 813 816 817 819 821 822 824 825 826 827 828 830 832 833 835 836 837 838 840 841 842 843 844 845 846 847 847 848 849 849 850 851 852 852 853 854 855 855 855 855 857
743 730 726 731 734 735 737 740 747 756 754 731 728 758 760 733 723 717 713 724 728 724 725 725 726 728 729 730 731 732 734 736 739 741 742 745 748 752 757 761 764 767 771 776 779 783 786 789 791 794 796 799 801 803 805 808 810 812 814 815 817 818 820 821 822 824 826 827 829 831 832 834 835 836 838 839 840 841 842 843 844 845 846 847 848 849 849 850 851 852 853 853 854 855 855 856 856
739 721 720 729 733 738 739 742 747 746 742 733 727 744 759 747 727 713 713 725 729 726 726 724 723 725 725 726 726 727 729 731 734 737 738 740 743 746 750 755 759 763 768 772 775 778 782 785 788 791 794 796 798 801 803 804 807 809 810 811 814 815 817 818 820 822 824 825 827 829 830 832 833 834 836 837 838 840 841 842 843 843 845 846 846 847 848 849 850 851 852 853 854 854 855 856 855
730 716 721 728 730 735 736 740 745 739 743 750 737 737 757 752 727 713 714 724 730 726 724 722 720 721 722 723 722 722 724 725 728 732 734 735 737 741 745 750 755 759 763 766 770 774 778 781 785 788 791 793 795 798 800 801 804 806 806 808 811 813 814 816 818 820 822 823 825 827 828 830 831 832 834 835 836 838 839 840 841 842 843 844 845 846 847 848 849 850 851 852 853 853 854 855 855
720 717 725 728 729 732 735 740 742 742 752 756 741 735 752 750 725 716 719 724 727 721 715 716 715 716 718 718 718 718 720 722 723 726 728 730 733 736 741 745 750 754 757 762 766 770 774 778 781 784 786 790 792 794 796 798 801 803 803 806 808 810 812 814 816 818 819 821 823 825 826 828 829 830 831 833 834 835 837 838 839 840 841 842 844 845 846 847 848 849 850 851 852 853 854 854 855
715 721 730 733 733 732 735 736 739 753 757 747 736 731 743 748 726 713 714 714 714 711 708 708 709 711 713 713 713 714 716 718 719 721 723 726 730 734 738 741 746 750 754 758 762 766 770 773 776 780 783 786 789 790 792 796 798 799 801 803 805 807 809 811 813 815 817 818 820 822 823 825 827 828 829 831 832 833 835 836 837 838 839 841 842 843 844 845 846 847 848 850 851 851 853 853 854
717 726 734 740 742 740 744 744 746 763 758 737 728 725 738 746 723 704 701 695 696 701 701 702 705 708 707 707 708 708 710 713 715 718 720 722 727 731 734 738 741 746 750 753 757 760 764 768 772 775 779 782 784 787 789 792 795 796 798 800 802 804 807 809 810 812 814 815 817 819 821 822 824 826 827 828 829 831 832 833 835 836 837 839 840 841 842 844 845 846 847 848 849 850 851 852 853
720 728 735 747 754 758 765 760 754 758 748 729 722 724 734 729 707 698 695 687 687 691 691 692 696 700 701 702 702 702 705 708 710 714 716 718 722 725 728 733 737 741 745 748 752 755 759 763 767 771 774 777 780 783 786 788 791 793 795 797 799 802 804 806 808 809 811 812 814 816 818 820 821 822 824 825 826 828 829 831 832 834 835 837 838 840 841 842 843 844 845 846 847 849 850 851 852
722 726 733 745 754 767 776 763 753 752 739 723 717 724 731 719 699 691 689 685 682 682 683 684 685 690 694 695 696 698 700 702 705 708 711 713 716 718 722 727 731 735 739 743 747 750 754 758 762 766 770 773 776 779 782 784 787 789 792 794 797 799 801 803 805 806 808 810 811 813 815 817 818 819 820 822 823 825 827 828 829 831 833 834 836 838 839 840 841 842 844 845 846 847 848 849 850
717 714 721 732 735 749 760 751 748 746 733 723 723 729 730 720 701 682 675 677 677 678 679 679 680 682 685 688 690 694 696 698 700 703 705 707 708 712 716 720 725 729 733 737 741 745 749 752 756 760 764 768 771 775 777 780 783 786 788 791 793 795 797 800 802 803 805 807 808 810 812 813 815 816 817 819 821 822 824 825 827 828 830 832 834 835 837 838 839 840 842 843 844 845 846 847 848
713 706 716 725 718 723 734 730 726 728 727 725 725 724 711 699 689 676 673 674 674 678 677 677 681 678 679 685 688 690 692 693 695 698 700 701 703 707 710 714 719 723 728 732 735 739 742 746 750 754 758 762 766 770 772 776 779 782 785 787 790 792 794 796 798 800 801 803 805 807 808 810 812 813 815 816 817 819 821 823 824 825 827 829 831 832 834 836 837 838 840 841 842 843 844 845 846
708 710 716 710 700 709 726 729 720 726 738 728 718 719 707 696 691 679 677 680 676 678 677 676 678 676 678 683 683 685 686 687 690 691 694 696 699 702 705 708 713 716 721 724 728 732 736 740 745 749 754 758 761 764 768 771 775 778 781 783 786 788 790 792 794 796 798 800 802 803 805 807 808 810 812 813 814 816 818 820 821 823 824 826 828 830 831 833 835 836 837 838 840 841 842 843 844
701 712 706 697 701 708 718 733 732 737 747 728 711 716 714 712 704 680 677 685 681 677 677 675 675 675 679 680 679 680 680 681 683 685 688 691 694 697 699 703 706 710 714 717 722 727 731 736 739 743 748 751 755 759 763 767 771 774 777 779 781 784 786 788 790 793 795 797 799 800 802 803 805 807 808 810 811 813 814 816 818 820 821 823 825 827 828 830 832 833 834 836 837 839 841 841 842
687 694 688 695 718 722 722 734 737 738 744 729 712 709 706 706 698 680 679 683 679 676 675 674 674 674 676 676 676 677 676 678 680 681 685 687 689 691 693 696 699 703 708 712 717 722 727 731 734 738 741 744 750 754 759 763 766 769 771 774 777 779 782 785 787 790 792 793 795 796 798 799 801 803 805 806 808 809 811 813 815 817 818 820 822 823 825 827 829 830 832 833 835 837 838 839 840
683 686 685 690 704 712 714 721 721 725 733 727 717 710 701 691 681 676 678 676 674 675 673 673 672 669 670 670 670 672 674 675 676 677 680 681 682 684 686 690 693 697 702 706 712 716 720 725 729 733 737 741 746 750 753 757 760 763 766 769 773 775 778 781 783 786 787 789 790 792 794 795 797 799 801 802 804 806 808 809 811 813 815 817 818 820 822 824 826 827 828 830 832 834 836 837 837
691 695 695 693 694 697 702 705 704 711 722 722 720 715 696 673 663 666 670 668 668 669 669 670 668 663 663 663 663 665 669 670 670 671 673 674 676 677 680 685 689 694 699 703 707 711 715 720 724 728 733 737 741 744 747 751 754 758 761 764 768 770 773 776 779 781 783 785 787 788 790 792 793 795 797 799 800 802 804 806 808 810 812 813 815 816 818 820 822 823 825 827 829 831 833 834 835
684 690 690 692 694 698 711 716 703 699 708 711 714 716 693 663 656 660 661 662 663 662 663 665 663 661 659 658 658 659 662 665 665 665 666 668 670 672 675 681 686 690 694 698 702 706 710 714 718 722 727 731 734 738 742 745 749 753 756 759 762 766 769 772 775 777 779 781 783 784 786 788 790 791 793 795 797 798 801 803 805 807 808 810 811 813 815 817 818 820 822 824 825 828 830 831 832